Regional Weather Roundup
Issued by NWS Goodland, KS

Home | Current Version | Previous Version | Text Only | Print | Product List | Glossary On
Versions: 1 2 3 4 5 6 7 8 9 10 11 12 13 14 15 16 17 18 19 20 21 22 23 24 25 26 27 28 29 30 31 32 33 34 35 36 37 38 39 40 41 42 43 44 45 46 47 48 49 50
000
ASUS43 KGLD 260108
RWRGLD

GOODLAND FORECAST AREA HOURLY WEATHER ROUNDUP
NATIONAL WEATHER SERVICE GOODLAND KS
700 PM MDT FRI JUL 25 2014

...OFFICIAL OBSERVATIONS...

CITY           SKY/WX    TMP DP  RH WIND       PRES   REMARKS
GOODLAND KS    PTSUNNY   90  59  35 E10       29.93S
HILL CITY KS   CLEAR     95  68  41 NE9       29.82R
IMPERIAL NEB   CLOUDY    86  66  51 CALM      29.89F
MCCOOK NEB     PTSUNNY   87  68  52 E6        29.85S
AKRON CO       CLOUDY    89  46  22 VRB6      30.03R
BURLINGTON CO  CLOUDY    89  59  36 E8        29.97S
LIMON CO       CLOUDY    78  53  41 N16G22    30.10F
$$

...UNOFFICIAL OBSERVATIONS...

CITY           SKY/WX    TMP DP  RH WIND       PRES   REMARKS
COLBY KS         N/A     90  70  51 NE8       29.90S HAZE
GOVE KS          N/A     94  32  11 MISG        N/A
LENORA KS        N/A     89  32  13 MISG        N/A
NORTON KS      CLEAR     88  66  48 NE5       29.83S
SHARON SPRINGS   N/A     88  67  50 E6          N/A
ST FRANCIS KS  PTSUNNY   90  55  31 E7        29.90
TRENTON NEB      N/A     88  32  13 CALM        N/A
KIT CARSON CO    N/A     92  57  30 N10         N/A
YUMA CO          N/A     88  54  31 CALM        N/A
$$


USA.gov is the U.S. government's official web portal to all federal, state and local government web resources and services.